sat.trackr.live / text

‹ back to catalog

STARLINK-6322

NORAD 57337 · 2023-099K

PAYLOAD ACTIVE UNKNOWN

§ Identity

Operator
Country
US
Launch date
2023-07-16
Launch site
AFETR
Launch vehicle
Mass (kg)
RCS (m²)

Purposes: comms

External: N2YO · Heavens-Above · Gunter

§ Orbital elements

Epoch: 2026-09-20T14:26:12.422688Z

Period
94.27 min
Inclination
43.0006°
Eccentricity
0.0000902
Mean motion
15.27569476 rev/d
Perigee alt
482.5 km
Apogee alt
483.7 km
Semi-major
6,861.2 km
B*
1.0375e-4
RAAN
231.8137°
Arg perigee
331.1020°
Mean anomaly
28.9782°
Rev number
17,588

§ Raw data

STARLINK-63221 57337U 23099K   26263.60153267  .00002593  00000+0  10375-3 0  99942 57337  43.0006 231.8137 0000902 331.1020  28.9782 15.27569476175883

JSON: /api/v1/satellites/57337 · /tle

For live sub-satellite position, see the globe view (requires WebGL).

§ Visibility from observer

Set your observer location to see the next 7 days of passes ≥ 10°. The values pass through the URL so the page stays shareable.

No JS? Fill the form by hand. The geolocation button needs JavaScript.